Location: Anumalkud?ru
(16.4847°N, 80.6636°E)
Time: 15:41:55
(UTC+00:00)

Cosmos 2227 - Pass Details

Date: 11 April 2026
Orbit: 831 x 862 km, 71.0° (Epoch: 11 May)

Event Time Altitude Azimuth Distance (km) Brightness Sun altitude
Rises 14:22:30 0° 341° (NNW) 3,428 7.9 -22.0°
Reaches altitude 10° 14:24:57 10° 341° (NNW) 2,492 7.1 -22.6°
Maximum altitude 14:30:42 81° 255° (WSW) 873 4.2 -23.9°
Enters shadow 14:33:19 34° 171° (S) 1,382 5.0 -24.5°
